{"data":{"norad_id":41860,"epoch":"2026-05-24T17:19:41.416032Z","epoch_age_seconds":98999,"freshness":"FRESH","line1":"1 41860U 16069B   26144.72200713  .00000014  00000+0  00000+0 0  9993","line2":"2 41860  55.4828 101.7300 0004738 349.6187  10.3311  1.70473926 59254","mean_motion":1.70473926,"eccentricity":0.0004738,"inclination_deg":55.4828,"raan_deg":101.73,"arg_perigee_deg":349.6187,"mean_anomaly_deg":10.3311,"bstar":0,"rev_number":5925,"period_min":844.70395783576,"perigee_km":23208.166987879,"apogee_km":23236.216259283,"semimajor_km":29600.328623581,"source":"CELESTRAK","updated_at":"2026-05-25T13:38:24.057680Z"}}